SCP
0 0 0 0 0 0 0 0 0 0 0 0 0 0 0 0 0 0 0 0 0 0 0 0 0 0 0 0 0 0 0 0 0 0 0 0 0 0 0 0 0 0 0 0
0 0 0 0 0 0 0 0 0 0 0 0 0 0 0 0 0 0 0 0 0 0 0 0 0 0 0 0 0 0 0 0 0 0 0 0 0 0 0 0 0 0 0 0
0 0 0 0 0 0 0 0 0 0 0 0 0 0 0 0 0 0 0 0 0 0 0 0 0 0 0 0 0 0 0 0 0 0 0 0 0 0 0 0 0 0 0 0
0 0 0 0 0 0 0 0 0 0 0 0 0 0 0 0 0 0 0 0 0 0 0 0 0 0 0 0 0 0 0 0 0 0 0 0 0 0 0 -0 -0 0 -0 0
0 0 0 0 0 0 0 0 0 0 0 0 0 0 0 0 0 0 0 0 0 0 0 0 0 0 0 0 0 0 0 0 0 0 0 0 0 0 0 0 0 0 0 0
0 0 0 0 0 0 0 0 0 0 0 0 0 0 0 0 0 0 0 0 0 0 0 0 0 0 0 0 0 0 0 0 0 0 0 0 0 0 0 0 0 0 0 0
0 0 0 0 0 0 0 0 0 0 0 0 0 0 0 0 0 0 0 0 0 0 0 0 0 0 0 0 0 0 0 0 0 0 0 0 -0 0 0 0 0 0 0 0
0 0 0 0 0 0 0 0 0 0 0 0 0 0 0 0 0 0 0 0 0 0 0 0 0 0 0 0 0 0 0 0 0 0 0 0 0 0 0 0 0 0 0 0
0 0 0 0 0 0 0 0 0 0 0 0 0 0 0 0 0 0 0 0 0 0 0 0 0 0 0 0 0 0 0 0 0 0 0 0 0 0 0 0 0 0 0 0
0 0 0 0 0 0 0 0 0 0 0 0 0 0 0 0 0 0 0 0 0 0 0 0 0 0 0 0 0 0 0 0 0 0 0 0 0 0 0 0 0 0 0 0
0 0 0 0 0 0 0 0 0 0 0 0 0 0 0 0 0 0 0 0 0 0 0 0 0 0 0 0 0 0 0 0 0 0 0 0 0 0 0 0 0 0 0 0
-0 0 0 0 0 0 -0 0 0 0 0 0 0 0 0 0 0 0 0 0 0 0 0 0 0 0 0 0 0 0 0 0 0 0 0 0 0 0 0 0 0 0 0 0
0 0 0 0 0 0 0 0 0 0 0 0 0 0 0 0 0 0 0 0 0 0 0 0 0 0 0 0 0 0 0 0 0 0 0 0 0 0 0 0 0 0 0 0
0 0 0 0 0 0 0 0 0 0 0 0 0 0 0 0 0 0 0 0 0 0 0 0 0 0 0 0 0 0 0 0 0 0 0 0 0 0 0 0 0 0 0 0
0 0 0 0 0 0 0 0 0 0 0 0 0 0 0 0 0 0 0 0 0 0 0 0 0 0 0 0 0 0 0 0 0 0 0 0 0 -0 0 0 0 0 0 0
0 0 0 0 0 0 0 0 0 0 0 0 0 0 0 0 0 0 0 0 0 0 0 0 0 0 0 0 0 0 0 0 0 0 0 0 0 0 0 0 0 0 0 0
0 0 0 0 0 0 0 0 0 0 0 0 0 0 0 0 0 0 0 0 0 0 0 0 0 0 0 0 0 0 0 0 -0 0 0 -0 0 0 0 0 0 0 0 0
0 0 0 0 0 0 0 0 0 0 0 0 0 0 0 0 0 0 0 0 0 0 0 0 0 0 0 0 0 0 0 0 -0 0 0 0 0 0 0 0 0 0 0 0
0 0 0 0 0 0 0 0 0 0 0 0 0 0 0 0 0 0 0 0 0 0 0 0 0 0 0 0 0 0 0 0 0 0 0 0 0 0 0 0 0 0 0 0
0 0 0 0 0 0 0 0 0 0 0 0 0 0 0 0 0 0 0 0 0 0 0 0 0 0 0 0 0 0 0 0 0 -0 0 0 0 0 0 0 0 0 0 0
0 0 0 0 0 0 0 0 0 0 0 0 0 0 0 0 0 0 0 0 0 0 0 0 0 0 0 0 0 0 0 0 0 -0 -0 -0 -0 0 0 0 0 0 0 0
0 0 0 0 0 0 0 0 0 0 0 0 0 0 0 0 0 0 0 0 0 0 0 0 0 0 0 0 0 0 0 0 0 0 0 -0 0 0 0 0 0 0 0 0
0 0 0 0 0 0 0 0 0 0 0 0 0 0 0 0 0 0 0 0 0 0 0 0 0 0 0 0 0 0 0 0 0 0 0 0 0 0 0 0 0 0 0 0
0 0 0 0 0 0 0 0 0 0 0 0 0 0 0 0 0 0 0 0 0 0 0 0 0 0 0 0 0 0 0 0 0 0 0 0 0 0 0 0 0 0 0 0
0 0 0 0 0 0 0 0 0 0 0 0 0 0 0 0 -0 0 0 0 0 0 0 0 0 0 0 0 0 0 0 0 0 0 0 0 0 0 0 0 0 0 0 0
0 0 0 0 0 0 0 0 0 0 0 0 0 0 0 0 -0 0 0 0 0 0 0 0 0 0 0 0 0 0 0 0 0 0 0 0 0 0 0 0 0 0 0 0
0 0 0 0 0 0 0 0 0 0 0 0 0 0 0 0 0 0 0 0 0 0 0 0 0 0 0 0 0 0 0 0 0 0 0 0 0 0 0 0 0 0 0 0
Wind_Speed_500mb
6 8 1 2 6 7 14 18 16 25 25 18 18 17 17 16 12 13 18 20 21 21 26 35 42 41 37 30 37 30 23 30 33 37 33 32 28 31 47 39 38 30 21 21
8 4 4 10 6 10 11 16 16 23 28 15 13 13 18 18 17 21 24 22 22 25 31 36 38 39 32 27 26 21 23 32 36 34 33 28 33 48 36 35 37 25 19 13
8 3 8 17 7 11 13 16 16 25 26 21 11 14 16 16 19 21 21 22 26 30 35 37 36 36 26 19 16 22 28 33 32 32 31 35 46 39 41 35 23 19 15 10
9 5 21 9 4 8 16 23 22 19 15 9 6 9 15 21 22 23 25 27 32 37 41 36 35 28 23 15 18 24 29 30 30 30 37 42 40 35 35 27 18 15 15 14
12 15 12 22 17 9 16 23 14 15 8 4 4 9 15 20 21 22 25 29 35 41 42 36 31 24 15 15 20 25 27 28 28 42 41 35 33 39 32 27 18 17 15 20
7 18 24 18 9 0 6 21 10 1 2 7 12 17 21 22 18 24 29 34 41 43 38 31 29 19 12 17 21 25 26 26 36 35 29 35 34 32 31 29 27 21 19 22
17 16 19 12 4 4 16 10 8 5 6 6 9 12 9 13 19 24 31 40 43 39 35 31 23 12 13 17 22 22 22 23 27 27 29 31 26 28 22 25 24 23 26 26
6 18 24 9 6 9 12 7 5 6 7 9 10 7 8 14 20 27 38 45 41 40 33 26 16 10 14 19 21 20 18 22 21 24 27 29 29 28 23 20 23 27 28 25
6 12 4 2 11 4 2 4 1 4 9 8 6 6 12 17 23 31 40 43 40 38 28 16 9 11 13 19 17 18 16 15 17 19 21 24 25 25 24 23 21 26 26 29
3 10 11 14 16 17 7 4 7 10 8 6 4 9 15 22 27 35 41 40 40 33 20 8 7 12 16 16 16 15 13 16 14 14 17 22 18 18 17 15 16 21 25 23
18 25 17 19 12 9 12 11 12 10 8 4 5 11 19 26 28 34 37 37 36 26 12 6 7 11 14 14 13 14 11 15 14 12 13 17 20 21 18 18 18 17 20 21
18 23 12 11 4 11 16 16 13 12 7 3 6 16 23 26 29 32 33 35 31 18 7 5 7 10 12 13 13 11 10 15 14 12 11 12 10 14 19 22 21 21 16 16
24 10 15 11 9 13 15 16 14 11 6 1 8 17 23 28 30 30 30 29 25 10 3 4 6 9 10 11 13 12 10 13 15 17 13 11 10 10 12 16 21 20 20 16
18 10 11 14 11 19 20 17 16 11 6 5 11 18 24 29 29 27 25 25 21 6 2 3 5 6 8 8 11 11 8 19 15 17 14 11 10 11 16 14 11 11 16 17
19 23 12 10 17 22 21 19 15 8 3 6 15 22 25 26 25 23 21 20 13 4 3 1 3 5 5 6 8 10 6 10 14 19 20 19 16 12 11 12 14 14 13 18
22 26 17 21 27 25 22 19 14 7 2 10 17 21 23 23 23 22 22 17 5 7 5 2 1 6 7 3 4 11 6 11 16 12 13 17 23 22 24 18 14 13 12 14
15 28 33 30 31 26 23 18 14 7 4 10 14 20 23 23 21 20 20 15 5 7 6 3 1 6 7 3 4 6 4 5 11 9 8 7 5 6 6 5 10 10 15 13
21 17 26 33 33 29 26 21 14 8 3 6 13 18 21 22 23 22 18 8 6 8 6 1 3 7 6 2 3 3 6 4 6 3 1 6 9 8 6 4 5 11 13 17
24 19 23 28 29 30 27 21 15 8 4 6 11 17 21 23 24 23 16 5 7 9 8 6 2 5 2 1 8 2 2 4 11 7 6 3 8 9 9 6 9 12 14 16
17 17 22 28 31 31 27 21 18 13 7 4 9 14 21 25 26 20 15 9 8 10 11 7 2 3 2 2 7 2 1 6 11 9 9 9 4 8 14 2 3 7 12 16
22 21 28 32 33 30 25 23 19 13 6 3 9 16 23 25 27 24 12 11 10 14 9 10 9 6 5 3 4 5 4 5 6 11 9 10 8 4 6 4 5 7 10 15
22 28 33 35 35 31 27 23 17 11 6 3 8 19 27 26 34 26 8 9 12 15 16 13 12 9 10 5 3 9 5 7 6 12 12 8 9 7 6 2 4 10 9 11
22 29 34 35 32 28 25 19 15 12 9 6 15 27 31 31 25 22 8 16 10 10 11 13 9 8 9 1 6 8 9 3 9 5 15 14 8 9 11 5 4 6 14 15
25 30 32 30 27 23 17 14 15 14 10 13 20 27 31 25 21 17 15 19 16 12 10 10 9 8 6 3 5 7 13 6 5 8 11 14 13 8 9 8 7 4 6 10
24 27 27 24 19 17 15 12 5 9 10 10 18 27 31 31 24 18 18 17 11 11 11 10 9 8 5 6 6 5 10 10 7 10 8 10 18 16 14 6 9 10 7 11
19 20 20 19 18 11 10 13 17 19 15 13 16 18 23 27 22 18 19 13 14 9 8 9 8 11 4 8 10 11 10 10 10 11 19 13 12 17 21 19 14 13 10 8
13 18 18 17 18 21 25 25 25 25 22 15 17 18 20 22 17 12 13 11 11 12 15 9 9 9 5 6 9 12 13 14 17 16 18 25 19 16 19 22 14 13 10 11
Wind_Direction_500mb
92 94 100 308 272 241 275 317 304 328 318 343 3 352 2 354 2 353 356 354 350 335 320 319 323 322 317 304 303 303 317 328 330 328 331 329 324 323 321 337 343 328 331 333
162 146 263 281 290 279 276 311 300 313 304 36 1 1 28 27 9 359 1 358 355 344 338 338 340 339 332 321 312 317 330 336 335 338 339 332 324 324 337 343 332 343 339 349
268 144 267 261 291 297 302 293 325 310 345 336 350 37 26 11 6 2 358 354 351 347 344 340 343 343 342 329 329 339 342 342 345 346 341 330 333 334 331 330 332 346 5 39
303 207 262 50 72 281 291 295 302 293 291 335 28 68 48 31 21 18 6 358 353 345 338 334 335 332 335 341 349 348 350 352 353 348 340 348 348 347 354 352 4 27 52 36
273 276 308 276 184 228 273 290 318 305 310 299 315 217 60 45 28 19 10 360 347 339 334 331 334 335 344 351 359 355 357 2 356 350 356 0 5 11 20 24 40 62 64 49
269 282 285 329 60 352 258 279 70 322 295 336 317 284 64 32 17 10 1 350 341 340 335 337 333 342 356 5 360 1 6 4 354 2 5 17 18 24 23 54 69 62 59 57
285 287 294 32 29 160 260 332 68 54 38 21 357 28 37 17 6 1 356 347 344 341 338 336 340 355 13 7 6 9 11 360 12 10 22 18 34 30 52 60 62 65 64 59
306 284 284 56 146 265 20 37 75 69 64 80 87 63 24 358 354 353 350 349 349 345 340 342 350 18 10 7 10 13 11 11 21 23 39 44 45 56 60 60 67 71 70 68
254 310 32 322 265 335 291 15 122 145 116 101 78 11 353 347 348 348 347 348 345 345 338 348 19 31 8 6 13 10 8 23 27 27 37 42 37 54 73 68 74 72 71 69
272 268 280 283 257 233 224 232 152 137 120 105 23 352 343 343 343 344 346 346 344 345 349 16 51 21 12 12 15 12 19 19 30 32 42 45 50 47 53 59 73 81 68 72
259 267 265 258 243 222 206 181 158 141 138 113 7 344 341 339 338 341 342 345 348 349 9 54 43 19 16 12 12 18 33 21 26 27 45 50 46 47 53 64 78 80 71 65
276 317 263 300 216 187 181 175 168 154 147 104 356 342 337 335 333 335 340 343 348 352 30 61 30 17 16 18 12 23 28 21 24 33 36 33 31 50 67 75 77 82 83 83
271 282 265 262 215 189 184 167 155 154 151 158 344 341 334 330 327 329 331 336 344 349 51 46 29 15 18 25 27 25 35 36 22 35 33 37 45 64 90 79 70 75 70 82
244 238 227 196 230 187 170 166 168 143 121 31 350 335 329 325 324 324 325 331 334 321 102 49 22 12 17 39 42 28 43 51 39 29 31 46 62 71 78 74 79 61 59 79
233 213 240 221 187 175 172 168 161 153 96 349 340 334 333 330 330 330 328 327 319 216 180 138 11 7 20 59 54 34 42 54 44 52 61 68 82 80 72 80 88 101 84 70
219 211 210 201 197 184 179 180 182 165 32 350 344 338 332 327 323 324 325 318 267 249 211 211 7 346 5 70 55 31 45 95 92 67 66 72 88 83 77 75 63 76 92 110
216 214 215 210 196 188 185 182 171 145 49 4 356 352 348 340 336 329 328 318 241 199 185 213 238 341 4 114 73 19 65 131 121 81 95 92 62 43 53 59 58 86 95 115
228 231 215 210 199 188 177 166 150 129 74 11 4 357 353 346 339 336 329 310 200 187 234 246 326 340 353 127 98 83 1 191 161 153 149 41 14 13 52 76 100 115 121 107
210 211 204 203 192 181 172 161 150 149 119 45 14 360 355 350 341 337 330 296 224 227 258 270 323 342 357 257 119 293 65 302 197 182 210 259 29 5 25 52 110 118 133 146
184 186 177 174 172 171 165 160 153 145 128 61 18 1 354 351 346 333 321 282 249 232 261 261 266 293 284 350 157 48 326 331 208 209 215 252 311 355 10 29 120 141 145 147
209 198 185 176 171 167 164 160 157 158 160 41 11 357 351 346 344 333 320 300 246 256 243 286 254 260 262 258 69 227 285 292 277 206 217 219 233 240 348 18 154 148 161 158
198 189 182 178 173 164 163 164 169 180 193 261 346 348 345 343 344 343 300 274 292 279 268 250 238 262 268 266 267 231 268 297 308 204 215 224 215 226 313 289 148 151 159 171
178 180 179 177 173 169 168 178 188 201 214 259 315 333 339 341 341 341 320 282 277 286 261 228 240 260 277 46 250 233 197 257 319 277 208 218 226 228 244 246 251 203 193 190
174 175 174 173 171 172 189 206 212 212 226 289 312 330 336 336 331 314 306 299 279 256 242 233 251 255 196 254 257 239 213 208 273 351 212 205 200 229 250 252 269 254 218 221
175 174 176 174 176 179 171 182 208 254 262 290 310 326 331 331 325 299 305 295 263 249 235 237 245 220 152 255 263 253 224 226 246 299 321 225 209 225 228 249 259 235 231 241
172 180 186 178 189 199 238 270 269 249 248 279 298 308 321 324 317 295 294 279 256 237 225 228 207 173 212 251 256 249 249 258 253 286 287 290 234 225 226 226 226 225 233 287
196 197 208 226 247 263 254 257 252 253 261 278 291 306 305 315 297 267 277 266 258 242 206 201 192 191 213 266 264 264 263 268 280 272 263 281 263 245 227 226 232 229 230 264
Wind_Speed_850mb
6 8 1 2 6 7 14 18 16 25 25 18 18 17 17 16 12 13 18 20 21 21 26 35 42 41 37 30 37 30 23 30 33 37 33 32 28 31 47 39 38 30 21 21
8 4 4 10 6 10 11 16 16 23 28 15 13 13 18 18 17 21 24 22 22 25 31 36 38 39 32 27 26 21 23 32 36 34 33 28 33 48 36 35 37 25 19 13
8 3 8 17 7 11 13 16 16 25 26 21 11 14 16 16 19 21 21 22 26 30 35 37 36 36 26 19 16 22 28 33 32 32 31 35 46 39 41 35 23 19 15 10
9 5 21 9 4 8 16 23 22 19 15 9 6 9 15 21 22 23 25 27 32 37 41 36 35 28 23 15 18 24 29 30 30 30 37 42 40 35 35 27 18 15 15 14
12 15 12 22 17 9 16 23 14 15 8 4 4 9 15 20 21 22 25 29 35 41 42 36 31 24 15 15 20 25 27 28 28 42 41 35 33 39 32 27 18 17 15 20
7 18 24 18 9 0 6 21 10 1 2 7 12 17 21 22 18 24 29 34 41 43 38 31 29 19 12 17 21 25 26 26 36 35 29 35 34 32 31 29 27 21 19 22
17 16 19 12 4 4 16 10 8 5 6 6 9 12 9 13 19 24 31 40 43 39 35 31 23 12 13 17 22 22 22 23 27 27 29 31 26 28 22 25 24 23 26 26
6 18 24 9 6 9 12 7 5 6 7 9 10 7 8 14 20 27 38 45 41 40 33 26 16 10 14 19 21 20 18 22 21 24 27 29 29 28 23 20 23 27 28 25
6 12 4 2 11 4 2 4 1 4 9 8 6 6 12 17 23 31 40 43 40 38 28 16 9 11 13 19 17 18 16 15 17 19 21 24 25 25 24 23 21 26 26 29
3 10 11 14 16 17 7 4 7 10 8 6 4 9 15 22 27 35 41 40 40 33 20 8 7 12 16 16 16 15 13 16 14 14 17 22 18 18 17 15 16 21 25 23
18 25 17 19 12 9 12 11 12 10 8 4 5 11 19 26 28 34 37 37 36 26 12 6 7 11 14 14 13 14 11 15 14 12 13 17 20 21 18 18 18 17 20 21
18 23 12 11 4 11 16 16 13 12 7 3 6 16 23 26 29 32 33 35 31 18 7 5 7 10 12 13 13 11 10 15 14 12 11 12 10 14 19 22 21 21 16 16
24 10 15 11 9 13 15 16 14 11 6 1 8 17 23 28 30 30 30 29 25 10 3 4 6 9 10 11 13 12 10 13 15 17 13 11 10 10 12 16 21 20 20 16
18 10 11 14 11 19 20 17 16 11 6 5 11 18 24 29 29 27 25 25 21 6 2 3 5 6 8 8 11 11 8 19 15 17 14 11 10 11 16 14 11 11 16 17
19 23 12 10 17 22 21 19 15 8 3 6 15 22 25 26 25 23 21 20 13 4 3 1 3 5 5 6 8 10 6 10 14 19 20 19 16 12 11 12 14 14 13 18
22 26 17 21 27 25 22 19 14 7 2 10 17 21 23 23 23 22 22 17 5 7 5 2 1 6 7 3 4 11 6 11 16 12 13 17 23 22 24 18 14 13 12 14
15 28 33 30 31 26 23 18 14 7 4 10 14 20 23 23 21 20 20 15 5 7 6 3 1 6 7 3 4 6 4 5 11 9 8 7 5 6 6 5 10 10 15 13
21 17 26 33 33 29 26 21 14 8 3 6 13 18 21 22 23 22 18 8 6 8 6 1 3 7 6 2 3 3 6 4 6 3 1 6 9 8 6 4 5 11 13 17
24 19 23 28 29 30 27 21 15 8 4 6 11 17 21 23 24 23 16 5 7 9 8 6 2 5 2 1 8 2 2 4 11 7 6 3 8 9 9 6 9 12 14 16
17 17 22 28 31 31 27 21 18 13 7 4 9 14 21 25 26 20 15 9 8 10 11 7 2 3 2 2 7 2 1 6 11 9 9 9 4 8 14 2 3 7 12 16
22 21 28 32 33 30 25 23 19 13 6 3 9 16 23 25 27 24 12 11 10 14 9 10 9 6 5 3 4 5 4 5 6 11 9 10 8 4 6 4 5 7 10 15
22 28 33 35 35 31 27 23 17 11 6 3 8 19 27 26 34 26 8 9 12 15 16 13 12 9 10 5 3 9 5 7 6 12 12 8 9 7 6 2 4 10 9 11
22 29 34 35 32 28 25 19 15 12 9 6 15 27 31 31 25 22 8 16 10 10 11 13 9 8 9 1 6 8 9 3 9 5 15 14 8 9 11 5 4 6 14 15
25 30 32 30 27 23 17 14 15 14 10 13 20 27 31 25 21 17 15 19 16 12 10 10 9 8 6 3 5 7 13 6 5 8 11 14 13 8 9 8 7 4 6 10
24 27 27 24 19 17 15 12 5 9 10 10 18 27 31 31 24 18 18 17 11 11 11 10 9 8 5 6 6 5 10 10 7 10 8 10 18 16 14 6 9 10 7 11
19 20 20 19 18 11 10 13 17 19 15 13 16 18 23 27 22 18 19 13 14 9 8 9 8 11 4 8 10 11 10 10 10 11 19 13 12 17 21 19 14 13 10 8
13 18 18 17 18 21 25 25 25 25 22 15 17 18 20 22 17 12 13 11 11 12 15 9 9 9 5 6 9 12 13 14 17 16 18 25 19 16 19 22 14 13 10 11
Wind_Direction_850mb
92 94 100 308 272 241 275 317 304 328 318 343 3 352 2 354 2 353 356 354 350 335 320 319 323 322 317 304 303 303 317 328 330 328 331 329 324 323 321 337 343 328 331 333
162 146 263 281 290 279 276 311 300 313 304 36 1 1 28 27 9 359 1 358 355 344 338 338 340 339 332 321 312 317 330 336 335 338 339 332 324 324 337 343 332 343 339 349
268 144 267 261 291 297 302 293 325 310 345 336 350 37 26 11 6 2 358 354 351 347 344 340 343 343 342 329 329 339 342 342 345 346 341 330 333 334 331 330 332 346 5 39
303 207 262 50 72 281 291 295 302 293 291 335 28 68 48 31 21 18 6 358 353 345 338 334 335 332 335 341 349 348 350 352 353 348 340 348 348 347 354 352 4 27 52 36
273 276 308 276 184 228 273 290 318 305 310 299 315 217 60 45 28 19 10 360 347 339 334 331 334 335 344 351 359 355 357 2 356 350 356 0 5 11 20 24 40 62 64 49
269 282 285 329 60 352 258 279 70 322 295 336 317 284 64 32 17 10 1 350 341 340 335 337 333 342 356 5 360 1 6 4 354 2 5 17 18 24 23 54 69 62 59 57
285 287 294 32 29 160 260 332 68 54 38 21 357 28 37 17 6 1 356 347 344 341 338 336 340 355 13 7 6 9 11 360 12 10 22 18 34 30 52 60 62 65 64 59
306 284 284 56 146 265 20 37 75 69 64 80 87 63 24 358 354 353 350 349 349 345 340 342 350 18 10 7 10 13 11 11 21 23 39 44 45 56 60 60 67 71 70 68
254 310 32 322 265 335 291 15 122 145 116 101 78 11 353 347 348 348 347 348 345 345 338 348 19 31 8 6 13 10 8 23 27 27 37 42 37 54 73 68 74 72 71 69
272 268 280 283 257 233 224 232 152 137 120 105 23 352 343 343 343 344 346 346 344 345 349 16 51 21 12 12 15 12 19 19 30 32 42 45 50 47 53 59 73 81 68 72
259 267 265 258 243 222 206 181 158 141 138 113 7 344 341 339 338 341 342 345 348 349 9 54 43 19 16 12 12 18 33 21 26 27 45 50 46 47 53 64 78 80 71 65
276 317 263 300 216 187 181 175 168 154 147 104 356 342 337 335 333 335 340 343 348 352 30 61 30 17 16 18 12 23 28 21 24 33 36 33 31 50 67 75 77 82 83 83
271 282 265 262 215 189 184 167 155 154 151 158 344 341 334 330 327 329 331 336 344 349 51 46 29 15 18 25 27 25 35 36 22 35 33 37 45 64 90 79 70 75 70 82
244 238 227 196 230 187 170 166 168 143 121 31 350 335 329 325 324 324 325 331 334 321 102 49 22 12 17 39 42 28 43 51 39 29 31 46 62 71 78 74 79 61 59 79
233 213 240 221 187 175 172 168 161 153 96 349 340 334 333 330 330 330 328 327 319 216 180 138 11 7 20 59 54 34 42 54 44 52 61 68 82 80 72 80 88 101 84 70
219 211 210 201 197 184 179 180 182 165 32 350 344 338 332 327 323 324 325 318 267 249 211 211 7 346 5 70 55 31 45 95 92 67 66 72 88 83 77 75 63 76 92 110
216 214 215 210 196 188 185 182 171 145 49 4 356 352 348 340 336 329 328 318 241 199 185 213 238 341 4 114 73 19 65 131 121 81 95 92 62 43 53 59 58 86 95 115
228 231 215 210 199 188 177 166 150 129 74 11 4 357 353 346 339 336 329 310 200 187 234 246 326 340 353 127 98 83 1 191 161 153 149 41 14 13 52 76 100 115 121 107
210 211 204 203 192 181 172 161 150 149 119 45 14 360 355 350 341 337 330 296 224 227 258 270 323 342 357 257 119 293 65 302 197 182 210 259 29 5 25 52 110 118 133 146
184 186 177 174 172 171 165 160 153 145 128 61 18 1 354 351 346 333 321 282 249 232 261 261 266 293 284 350 157 48 326 331 208 209 215 252 311 355 10 29 120 141 145 147
209 198 185 176 171 167 164 160 157 158 160 41 11 357 351 346 344 333 320 300 246 256 243 286 254 260 262 258 69 227 285 292 277 206 217 219 233 240 348 18 154 148 161 158
198 189 182 178 173 164 163 164 169 180 193 261 346 348 345 343 344 343 300 274 292 279 268 250 238 262 268 266 267 231 268 297 308 204 215 224 215 226 313 289 148 151 159 171
178 180 179 177 173 169 168 178 188 201 214 259 315 333 339 341 341 341 320 282 277 286 261 228 240 260 277 46 250 233 197 257 319 277 208 218 226 228 244 246 251 203 193 190
174 175 174 173 171 172 189 206 212 212 226 289 312 330 336 336 331 314 306 299 279 256 242 233 251 255 196 254 257 239 213 208 273 351 212 205 200 229 250 252 269 254 218 221
175 174 176 174 176 179 171 182 208 254 262 290 310 326 331 331 325 299 305 295 263 249 235 237 245 220 152 255 263 253 224 226 246 299 321 225 209 225 228 249 259 235 231 241
172 180 186 178 189 199 238 270 269 249 248 279 298 308 321 324 317 295 294 279 256 237 225 228 207 173 212 251 256 249 249 258 253 286 287 290 234 225 226 226 226 225 233 287
196 197 208 226 247 263 254 257 252 253 261 278 291 306 305 315 297 267 277 266 258 242 206 201 192 191 213 266 264 264 263 268 280 272 263 281 263 245 227 226 232 229 230 264